EUTELSAT KA-SAT 9A

Last updated on Thu Jul 03 2025 00:02:45 GMT+0000 (Coordinated Universal Time)

1 37258U 10069A 25183.42266964 .00000068 00000+0 00000+0 0 9991 2 37258 0.0577 306.9476 0004024 183.4786 311.4399 1.00270188 40504
UTC large
Height (km)
Speed (km/s)
/
Latitude / Longitude
Inclination (degrees)
Orbital Period (minutes)
Azimuth
Elevation
Range (km)
Doppler Factor

Next 0 passes for location: London (51.5072 / 0.1276)

Sorry there are no passes over London.